Weather History for Lytton, BC

Change the Weather History Date:

Wednesday, May 15, 2013

  Actual Average Record
Temperature  
Mean Temperature 60 °F -  
Max Temperature 71 °F 65 °F 91 °F (2006)
Min Temperature 49 °F 45 °F 39 °F (2002)
Degree Days  
Heating Degree Days 5    
Growing Degree Days 10 (Base 50)    
Moisture  
Dew Point 39 °F    
Average Humidity 46    
Maximum Humidity 66    
Minimum Humidity 21    
Precipitation  
Precipitation 0.00 in - - ()
Sea Level Pressure  
Sea Level Pressure 29.98 in    
Wind  
Wind Speed 16 mph ()    
Max Wind Speed 23 mph    
Max Gust Speed 33 mph    
Visibility 9.0 miles    
Events      
Averages and records for this station are not official NWS values.
T = Trace of Precipitation, MM = Missing Value Source: Averaged Metar Reports

Daily Weather History Graph

Daily Weather History Graph

Search for Another Location

Airport:

Trip Planner

Search our weather history database for the weather conditions in past years. The results will help you decide how hot, cold, wet, or windy it might be!

Date:

Astronomy

May. 15, 2013 Rise Set
Actual Time 5:19 AM PDT 8:47 PM PDT
Civil Twilight 4:39 AM PDT 9:27 PM PDT
Nautical Twilight 3:46 AM PDT 10:20 PM PDT
Astronomical Twilight 2:33 AM PDT 11:35 PM PDT
Moon 10:05 AM PDT (5/15) 12:31 AM PDT (5/15)
Length of Visible Light 16h 47m
Length of Day
15h 28m
Waxing Crescent, 28% of the Moon is Illuminated
May 15
Waxing Crescent
May 17
First Quarter
May 24
Full
May 31
Last Quarter
Jun 8
New

Hourly Weather History & Observations

Time (PDT) Temp. Dew Point Humidity Pressure Visibility Wind Dir Wind Speed Gust Speed Precip Events Conditions
12:00 AM 51.8 °F 37.4 °F 58% 30.07 in 9.0 mi South 19.6 mph 28.8 mph N/A   Clear
1:00 AM 51.8 °F 37.4 °F 58% 30.07 in 9.0 mi South 18.4 mph 25.3 mph N/A   Clear
2:00 AM 51 °F 38 °F 51% 30.06 in 9 mi SSW 18.4 mph - -  
2:00 AM 51.8 °F 37.4 °F 58% 30.06 in 9.0 mi SSW 18.4 mph 29.9 mph N/A   Clear
4:00 AM 50.0 °F 39.2 °F 66% 30.07 in 9.0 mi South 16.1 mph 27.6 mph N/A   Clear
5:00 AM 49 °F 38 °F 57% 30.07 in 9 mi SSE 17.3 mph - -  
5:00 AM 50.0 °F 39.2 °F 66% 30.07 in 9.0 mi SSE 16.1 mph 24.2 mph N/A   Mostly Cloudy
6:00 AM 50.0 °F 39.2 °F 66% 30.07 in 9.0 mi South 18.4 mph - N/A   Mostly Cloudy
7:00 AM 50.0 °F 39.2 °F 66% 30.07 in 9.0 mi SSE 17.3 mph 23.0 mph N/A   Partly Cloudy
8:00 AM 51 °F 39 °F 53% 30.07 in 9 mi South 23.0 mph - -  
8:00 AM 50.0 °F 39.2 °F 66% 30.07 in 9.0 mi South 20.7 mph 27.6 mph N/A   Clear
9:00 AM 53.6 °F 39.2 °F 58% 30.06 in 9.0 mi South 17.3 mph 28.8 mph N/A   Clear
10:00 AM 57.2 °F 39.2 °F 51% 30.04 in 9.0 mi South 18.4 mph 24.2 mph N/A   Partly Cloudy
11:00 AM 61 °F 40 °F 34% 30.02 in 9 mi South 15.0 mph - -  
11:00 AM 60.8 °F 39.2 °F 45% 30.02 in 9.0 mi South 15.0 mph 21.9 mph N/A   Partly Cloudy
12:00 PM 64.4 °F 39.2 °F 40% 29.99 in 9.0 mi South 19.6 mph 29.9 mph N/A   Partly Cloudy
1:00 PM 66.2 °F 39.2 °F 37% 29.96 in 9.0 mi South 18.4 mph 32.2 mph N/A   Partly Cloudy
2:00 PM 69 °F 39 °F 22% 29.94 in 9 mi South 19.6 mph - -  
3:00 PM 69.8 °F 39.2 °F 33% 29.91 in 9.0 mi South 19.6 mph 33.4 mph N/A   Partly Cloudy
4:00 PM 69.8 °F 39.2 °F 33% 29.90 in 9.0 mi South 18.4 mph 31.1 mph N/A   Clear
5:00 PM 70 °F 39 °F 21% 29.88 in 9 mi South 17.3 mph - -  
5:00 PM 69.8 °F 39.2 °F 33% 29.88 in 9.0 mi South 18.4 mph 27.6 mph N/A   Clear
6:00 PM 68.0 °F 39.2 °F 35% 29.87 in 9.0 mi South 15.0 mph 23.0 mph N/A   Partly Cloudy
7:00 PM 66.2 °F 39.2 °F 37% 29.87 in 9.0 mi SSW 13.8 mph 21.9 mph N/A   Scattered Clouds
8:00 PM 64 °F 39 °F 28% 29.88 in 9 mi SSW 11.5 mph - -  
8:00 PM 64.4 °F 39.2 °F 40% 29.88 in 9.0 mi SSW 13.8 mph 20.7 mph N/A   Clear
9:00 PM 62.6 °F 39.2 °F 42% 29.89 in 9.0 mi SSW 11.5 mph 24.2 mph N/A   Clear
10:00 PM 60.8 °F 39.2 °F 45% 29.91 in 9.0 mi SSW 15.0 mph 21.9 mph N/A   Clear
11:00 PM 60 °F 39 °F 35% 29.93 in 9 mi SSW 15.0 mph - -  
11:00 PM 60.8 °F 39.2 °F 45% 29.93 in 9.0 mi SSW 17.3 mph 23.0 mph N/A   Clear